FW7622 Weather Reports


Display with metric or nautical units.
time (UTC)temp
F
wind
direction
speed
MPH
gust
MPH
rain 1hr
in
rain 24hr
in
rain mn
in
humidity
%
barometer
mb
20260903005217 74 162 0.0 0.0 0.00 0.24 0.24 96 1011.1
20260903004713 74 166 0.0 0.0 0.00 0.24 0.24 95 1011.1
20260903004208 75 172 0.0 0.0 0.00 0.24 0.24 95 1011.1
20260903003704 75 172 0.0 0.0 0.00 0.24 0.24 94 1011.1
20260903003159 76 173 0.0 0.0 0.00 0.24 0.24 93 1011.1
20260903002654 76 174 0.0 0.0 0.00 0.24 0.24 92 1011.1
20260903002148 77 173 0.0 0.0 0.00 0.24 0.24 91 1011.1
20260903001643 77 174 0.0 0.0 0.00 0.24 0.24 89 1011.5
20260903001137 78 174 0.0 0.0 0.00 0.24 0.24 88 1011.1
20260903000633 78 174 0.0 0.0 0.00 0.24 0.24 87 1011.5
20260903000132 78 174 0.0 0.0 0.00 0.24 0.24 85 1011.1
20260902235630 79 174 0.0 0.0 0.00 0.24 0.24 84 1011.1
20260902235126 79 174 0.0 0.0 0.00 0.24 0.24 84 1011.1
20260902234620 80 169 0.0 0.0 0.00 0.24 0.24 81 1011.1
20260902234119 80 169 0.0 0.0 0.00 0.24 0.24 80 1011.5
20260902233614 80 179 0.0 0.0 0.00 0.24 0.24 79 1011.5
20260902233108 80 183 0.0 0.0 0.00 0.24 0.24 79 1011.1
20260902232608 80 184 0.0 0.0 0.00 0.24 0.24 78 1011.1
20260902232102 81 184 0.0 0.0 0.00 0.24 0.24 78 1011.1
20260902231601 81 186 0.0 0.0 0.00 0.24 0.24 76 1011.1
20260902231056 82 160 0.0 1.0 0.00 0.24 0.24 75 1011.5
20260902230551 82 185 0.0 0.0 0.00 0.24 0.24 75 1011.5
20260902230050 82 171 0.0 0.0 0.00 0.24 0.24 74 1011.1
20260902225545 82 172 0.0 0.0 0.00 0.24 0.24 74 1011.1
20260902225045 82 191 1.0 1.0 0.00 0.24 0.24 75 1011.1
20260902224543 82 178 0.0 0.0 0.00 0.24 0.24 74 1011.1
20260902224040 83 50 0.0 1.0 0.00 0.24 0.24 75 1011.1
20260902223536 84 263 0.0 1.0 0.00 0.24 0.24 73 1011.1
20260902223034 84 188 0.0 0.0 0.00 0.24 0.24 72 1011.1
20260902222533 84 209 1.0 1.0 0.00 0.24 0.24 71 1011.1
20260902222032 83 197 0.0 1.0 0.00 0.24 0.24 73 1010.7
20260902221527 83 287 2.0 2.0 0.00 0.24 0.24 72 1011.1
20260902221022 85 183 0.0 0.0 0.00 0.24 0.24 72 1011.1
20260902220517 86 187 0.0 0.0 0.00 0.24 0.24 70 1011.1
20260902220012 86 181 0.0 0.0 0.00 0.24 0.24 69 1010.7
20260902215508 86 184 0.0 1.0 0.00 0.24 0.24 69 1011.1
20260902215004 85 187 1.0 1.0 0.00 0.24 0.24 68 1011.1
20260902214503 86 161 1.0 1.0 0.00 0.24 0.24 69 1011.1
20260902214002 86 190 0.0 0.0 0.00 0.24 0.24 68 1011.1
20260902213458 85 190 0.0 0.0 0.00 0.24 0.24 68 1011.1
20260902212956 85 126 0.0 1.0 0.00 0.24 0.24 69 1011.1
20260902212453 84 168 1.0 1.0 0.00 0.24 0.24 71 1011.1
20260902211949 86 169 0.0 1.0 0.00 0.24 0.24 68 1011.1
20260902211444 85 149 0.0 0.0 0.00 0.24 0.24 68 1011.5
20260902210939 84 137 3.0 3.0 0.00 0.24 0.24 69 1011.1
20260902210434 84 205 1.0 1.0 0.00 0.24 0.24 70 1011.5
20260902205932 85 165 2.0 2.0 0.00 0.24 0.24 70 1011.1
20260902205427 85 201 1.0 1.0 0.00 0.24 0.24 67 1011.5
20260902204918 82 180 0.0 0.0 0.00 0.24 0.24 74 1011.5
20260902204417 83 176 0.0 0.0 0.00 0.24 0.24 71 1011.8
20260902203913 85 217 1.0 1.0 0.00 0.24 0.24 69 1011.8
20260902203408 86 184 0.0 1.0 0.00 0.24 0.24 67 1011.8
20260902202902 84 196 1.0 1.0 0.00 0.24 0.24 68 1011.8
20260902202357 84 226 2.0 2.0 0.00 0.24 0.24 68 1011.8
20260902201854 83 133 3.0 3.0 0.00 0.24 0.24 69 1011.8
20260902201354 85 145 1.0 2.0 0.00 0.24 0.24 67 1011.5
20260902200848 84 187 1.0 1.0 0.00 0.24 0.24 67 1011.8
20260902200344 83 214 1.0 1.0 0.00 0.24 0.24 72 1011.8
20260902195839 84 183 1.0 2.0 0.00 0.24 0.24 70 1011.8
20260902195338 84 183 0.0 0.0 0.00 0.24 0.24 68 1011.8
20260902194833 84 222 2.0 3.0 0.00 0.24 0.24 71 1011.8
20260902194328 83 164 2.0 2.0 0.00 0.24 0.24 71 1012.2
20260902193823 83 222 0.0 1.0 0.00 0.24 0.24 73 1012.2
20260902193319 83 300 3.0 3.0 0.00 0.24 0.24 71 1012.2
20260902192818 82 185 0.0 1.0 0.00 0.24 0.24 75 1012.2
20260902192317 82 355 2.0 2.0 0.00 0.24 0.24 72 1012.2
20260902191816 83 156 2.0 2.0 0.00 0.24 0.24 72 1012.2
20260902191312 82 204 0.0 1.0 0.00 0.24 0.24 72 1011.8
20260902190807 82 12 2.0 2.0 0.00 0.24 0.24 74 1011.8
20260902190306 82 216 0.0 1.0 0.00 0.24 0.24 74 1012.2
20260902185802 82 179 0.0 1.0 0.00 0.24 0.24 74 1012.2
20260902185257 82 179 0.0 0.0 0.00 0.24 0.24 76 1012.2
20260902184753 81 165 0.0 1.0 0.00 0.24 0.24 75 1012.5
20260902184248 81 33 1.0 3.0 0.00 0.24 0.24 77 1012.2
20260902183744 82 335 3.0 3.0 0.00 0.24 0.24 74 1012.5
20260902183240 81 155 0.0 0.0 0.00 0.24 0.24 74 1012.5
20260902182736 80 136 1.0 2.0 0.00 0.24 0.24 74 1012.9
20260902182232 80 197 1.0 2.0 0.00 0.24 0.24 76 1012.9
20260902181729 79 213 1.0 1.0 0.00 0.24 0.24 76 1012.5
20260902181228 80 149 2.0 2.0 0.00 0.24 0.24 78 1012.9
20260902180723 79 187 0.0 0.0 0.00 0.24 0.24 81 1012.9
20260902180218 78 131 2.0 2.0 0.00 0.24 0.24 79 1012.9
20260902175713 78 171 0.0 0.0 0.00 0.24 0.24 78 1013.2
20260902175209 79 161 0.0 0.0 0.00 0.24 0.24 77 1012.9
20260902174705 79 167 0.0 0.0 0.00 0.24 0.24 79 1013.2
20260902174201 80 201 1.0 1.0 0.00 0.24 0.24 78 1013.2
20260902173656 79 211 2.0 2.0 0.00 0.24 0.24 79 1012.9
20260902173151 79 185 0.0 0.0 0.00 0.24 0.24 78 1012.9
20260902172645 78 183 0.0 0.0 0.00 0.24 0.24 78 1013.2
20260902172144 78 165 1.0 1.0 0.00 0.24 0.24 78 1012.9
20260902171640 78 231 1.0 1.0 0.00 0.24 0.24 80 1013.2
20260902171135 78 186 0.0 1.0 0.00 0.24 0.24 79 1013.2
20260902170631 78 194 0.0 1.0 0.00 0.24 0.24 79 1013.2
20260902170126 77 168 0.0 0.0 0.00 0.24 0.24 83 1013.2
20260902165626 78 171 0.0 0.0 0.00 0.24 0.24 79 1013.5
20260902165121 78 194 1.0 1.0 0.00 0.24 0.24 80 1013.2
20260902164616 77 171 0.0 0.0 0.00 0.24 0.24 81 1013.2
20260902164115 76 185 0.0 1.0 0.00 0.24 0.24 85 1013.5
20260902163610 77 192 1.0 1.0 0.00 0.24 0.24 86 1013.2
20260902163109 77 145 1.0 1.0 0.00 0.24 0.24 83 1013.2
20260902162608 76 187 1.0 2.0 0.00 0.24 0.24 84 1013.2
20260902162103 76 193 0.0 1.0 0.00 0.24 0.24 83 1012.9
20260902161558 76 182 0.0 0.0 0.00 0.24 0.24 85 1012.9
20260902161054 76 184 0.0 1.0 0.00 0.24 0.24 85 1013.2
20260902160550 75 184 0.0 0.0 0.00 0.24 0.24 88 1012.9
20260902160045 75 156 1.0 1.0 0.00 0.24 0.24 85 1013.2
20260902155538 75 181 0.0 1.0 0.00 0.24 0.24 87 1012.9
20260902155037 74 206 1.0 1.0 0.00 0.24 0.24 88 1013.2
20260902154532 73 155 1.0 2.0 0.00 0.24 0.24 88 1012.9
20260902154027 73 153 2.0 2.0 0.00 0.24 0.24 90 1013.2
20260902153525 71 183 0.0 0.0 0.00 0.24 0.24 94 1012.9
20260902153021 71 199 1.0 1.0 0.00 0.24 0.24 96 1012.9
20260902152518 70 185 0.0 0.0 0.00 0.24 0.24 96 1013.2
20260902152013 71 198 0.0 1.0 0.00 0.24 0.24 94 1012.9
20260902151509 69 190 0.0 0.0 0.00 0.24 0.24 97 1013.2
20260902151008 69 175 0.0 0.0 0.00 0.24 0.24 99 1012.9
20260902150504 68 166 0.0 0.0 0.00 0.24 0.24 99 1013.2
20260902145958 68 138 1.0 1.0 0.00 0.24 0.24 99 1012.9
20260902145454 67 178 0.0 0.0 0.00 0.24 0.24 99 1013.2
20260902144954 67 179 0.0 0.0 0.00 0.24 0.24 99 1013.2
20260902144450 67 139 2.0 2.0 0.00 0.24 0.24 99 1012.9
20260902143950 67 171 0.0 0.0 0.00 0.24 0.24 99 1013.2
20260902143445 67 179 0.0 0.0 0.00 0.24 0.24 99 1013.2
20260902142940 66 183 0.0 0.0 0.00 0.24 0.24 99 1013.2
20260902142436 66 161 0.0 0.0 0.00 0.24 0.24 99 1013.2
20260902141932 66 176 0.0 0.0 0.00 0.24 0.24 99 1013.2
20260902141427 66 184 0.0 0.0 0.00 0.24 0.24 99 1013.2
20260902140926 66 181 0.0 0.0 0.00 0.24 0.24 99 1012.9
20260902140422 65 173 0.0 0.0 0.00 0.24 0.24 99 1012.9
20260902135921 66 186 0.0 0.0 0.00 0.24 0.24 99 1012.9
20260902135418 65 177 0.0 0.0 0.00 0.24 0.24 99 1012.5
20260902134916 65 173 0.0 0.0 0.00 0.24 0.24 99 1012.9
20260902134412 65 155 1.0 1.0 0.00 0.24 0.24 99 1012.5
20260902133913 65 176 0.0 0.0 0.00 0.24 0.24 99 1012.5
20260902133407 65 183 0.0 0.0 0.00 0.24 0.24 99 1012.9
20260902132902 65 181 0.0 0.0 0.00 0.24 0.24 99 1012.9
20260902132357 64 141 1.0 1.0 0.00 0.24 0.24 99 1012.5
20260902131852 64 167 0.0 0.0 0.00 0.24 0.24 99 1012.9
20260902131349 64 243 0.0 1.0 0.00 0.24 0.24 99 1012.9
20260902130848 64 38 1.0 1.0 0.00 0.24 0.24 99 1012.9
20260902130344 65 175 0.0 0.0 0.00 0.24 0.24 99 1012.9
20260902125839 64 154 0.0 0.0 0.00 0.24 0.24 99 1013.2
20260902125335 63 173 0.0 0.0 0.00 0.24 0.24 99 1012.9
20260902124831 62 175 0.0 0.0 0.00 0.24 0.24 99 1013.2
20260902124326 62 173 0.0 0.0 0.00 0.24 0.24 99 1013.2
20260902123821 62 145 0.0 0.0 0.00 0.24 0.24 99 1013.2
20260902123318 62 171 0.0 0.0 0.00 0.24 0.24 99 1013.5
20260902122816 63 164 0.0 0.0 0.00 0.24 0.24 99 1013.5
20260902122313 63 155 0.0 0.0 0.00 0.24 0.24 99 1013.9
20260902121812 62 182 0.0 0.0 0.00 0.24 0.24 99 1014.2
20260902121307 62 184 0.0 0.0 0.00 0.24 0.24 99 1014.2
20260902120802 63 184 0.0 0.0 0.00 0.24 0.24 99 1014.2
20260902120259 63 194 0.0 0.0 0.00 0.24 0.24 99 1014.5
20260902115753 63 194 0.0 0.0 0.00 0.24 0.24 99 1013.9
20260902115250 63 183 0.0 0.0 0.00 0.24 0.24 99 1014.2
20260902114746 63 182 0.0 0.0 0.00 0.24 0.24 99 1013.9
20260902114241 63 182 0.0 0.0 0.00 0.24 0.24 99 1013.9
20260902113736 63 188 0.0 0.0 0.00 0.24 0.24 99 1014.2
20260902113231 63 187 1.0 1.0 0.00 0.24 0.24 99 1014.5
20260902112730 62 191 0.0 1.0 0.00 0.24 0.24 99 1013.9
20260902112228 62 185 0.0 0.0 0.00 0.24 0.24 99 1013.9
20260902111723 62 176 0.0 0.0 0.00 0.24 0.24 99 1013.2
20260902111219 62 173 0.0 0.0 0.00 0.24 0.24 99 1013.2
20260902110714 62 164 0.0 0.0 0.00 0.24 0.24 99 1013.2
20260902110210 62 181 0.0 0.0 0.00 0.24 0.24 99 1013.2
20260902105709 62 174 0.0 0.0 0.00 0.24 0.24 99 1012.9
20260902105205 62 186 0.0 0.0 0.00 0.24 0.24 99 1012.9
20260902104700 62 187 0.0 0.0 0.00 0.24 0.24 99 1012.9
20260902104156 62 183 0.0 0.0 0.00 0.24 0.24 99 1012.9
20260902103655 62 186 0.0 0.0 0.00 0.24 0.24 99 1012.9
20260902103150 62 185 0.0 0.0 0.00 0.24 0.24 99 1012.5
20260902102646 62 185 0.0 0.0 0.00 0.24 0.24 99 1012.2
20260902102144 62 185 0.0 0.0 0.00 0.24 0.24 99 1011.8
20260902101639 62 185 0.0 0.0 0.01 0.24 0.24 99 1011.5
20260902101138 62 183 0.0 0.0 0.01 0.24 0.24 99 1011.8
20260902100633 62 172 0.0 0.0 0.01 0.24 0.24 99 1011.8
20260902100128 62 186 0.0 0.0 0.01 0.24 0.24 99 1011.8
20260902095627 62 185 0.0 0.0 0.02 0.24 0.24 99 1011.5
20260902095126 62 163 0.0 1.0 0.03 0.24 0.24 99 1011.5
20260902094622 62 177 0.0 1.0 0.03 0.24 0.24 99 1011.8
20260902094118 62 172 0.0 0.0 0.04 0.24 0.24 99 1012.2
20260902093617 63 178 0.0 0.0 0.05 0.24 0.24 99 1012.2
20260902093113 63 175 0.0 0.0 0.06 0.24 0.24 99 1012.2
20260902092613 63 152 1.0 1.0 0.07 0.24 0.24 99 1012.5
20260902092108 63 158 0.0 0.0 0.09 0.24 0.24 99 1013.5
20260902091603 63 190 0.0 0.0 0.10 0.23 0.23 99 1013.2
20260902091059 63 180 0.0 0.0 0.11 0.23 0.23 99 1013.5
20260902090555 63 181 0.0 0.0 0.13 0.23 0.23 99 1013.9
20260902090053 63 185 0.0 0.0 0.14 0.23 0.23 99 1013.9
20260902085548 63 192 0.0 0.0 0.15 0.22 0.22 99 1013.2
20260902085043 63 182 0.0 0.0 0.15 0.21 0.21 99 1013.2
20260902084539 63 182 0.0 0.0 0.15 0.20 0.20 99 1012.9
20260902084034 63 21 2.0 2.0 0.16 0.20 0.20 99 1012.9
20260902083525 63 145 0.0 0.0 0.15 0.19 0.19 99 1012.5
20260902083025 63 157 1.0 1.0 0.14 0.17 0.17 99 1013.2
20260902082520 64 160 0.0 0.0 0.13 0.16 0.16 99 1013.2
20260902082016 64 173 1.0 1.0 0.11 0.14 0.14 99 1013.5
20260902081513 64 177 2.0 2.0 0.10 0.12 0.12 99 1014.5
20260902081012 64 172 0.0 1.0 0.09 0.11 0.11 99 1015.0
20260902080509 64 190 0.0 1.0 0.08 0.09 0.09 99 1015.7
20260902080004 64 198 3.0 3.0 0.07 0.08 0.08 99 1015.0
20260902075459 64 188 2.0 2.0 0.06 0.07 0.07 99 1015.3
20260902074954 64 194 0.0 1.0 0.05 0.06 0.06 99 1015.3
20260902074449 64 191 3.0 3.0 0.05 0.05 0.05 99 1015.7
20260902073944 63 191 0.0 0.0 0.04 0.04 0.04 99 1015.0
20260902073440 63 188 0.0 0.0 0.04 0.04 0.04 99 1014.2
20260902072936 63 192 0.0 0.0 0.03 0.03 0.03 99 1013.9
20260902072432 63 208 1.0 1.0 0.03 0.03 0.03 99 1013.5
20260902071928 64 160 0.0 0.0 0.02 0.02 0.02 99 1013.2
20260902071427 63 190 0.0 0.0 0.02 0.02 0.02 99 1013.9
20260902070924 63 190 0.0 0.0 0.01 0.01 0.01 99 1013.5
20260902070420 63 173 0.0 0.0 0.01 0.01 0.01 99 1013.2
20260902065918 63 172 0.0 0.0 0.01 0.01 0.01 99 1012.9
20260902065413 63 139 1.0 1.0 0.01 0.01 0.01 99 1013.2
20260902064908 63 202 0.0 0.0 0.00 0.00 0.00 99 1013.5
20260902064404 63 194 0.0 0.0 0.00 0.00 0.00 99 1013.2
20260902063900 63 184 0.0 1.0 0.00 0.00 0.00 99 1013.2
20260902063354 63 190 0.0 0.0 0.00 0.00 0.00 99 1013.2
20260902062854 63 191 0.0 0.0 0.00 0.00 0.00 99 1013.2
20260902062354 63 178 0.0 0.0 0.00 0.00 0.00 99 1013.2
20260902061853 63 172 0.0 0.0 0.00 0.00 0.00 99 1012.9
20260902061349 63 172 0.0 0.0 0.00 0.00 0.00 99 1013.2
20260902060845 63 170 0.0 0.0 0.00 0.00 0.00 99 1012.9
20260902060340 63 173 0.0 0.0 0.00 0.00 0.00 99 1012.9
20260902055836 63 173 0.0 0.0 0.00 0.00 0.00 99 1012.5
20260902055332 63 174 0.0 0.0 0.00 0.00 0.00 99 1012.5
20260902054827 62 172 0.0 0.0 0.00 0.00 0.00 99 1012.9
20260902054323 62 173 0.0 0.0 0.00 0.00 0.00 99 1012.9
20260902053818 62 176 0.0 0.0 0.00 0.00 0.00 99 1013.2
20260902053313 62 172 0.0 0.0 0.00 0.00 0.00 99 1012.9
20260902052812 62 172 0.0 0.0 0.00 0.00 0.00 99 1013.2
20260902052308 62 158 0.0 0.0 0.00 0.00 0.00 99 1013.2
20260902051802 62 172 0.0 0.0 0.00 0.00 0.00 99 1013.2
20260902051301 62 167 0.0 0.0 0.00 0.00 0.00 99 1013.2
20260902050757 63 149 0.0 0.0 0.00 0.00 0.00 99 1013.2
20260902050251 62 177 0.0 0.0 0.00 0.00 0.00 99 1013.2
20260902045751 63 177 0.0 0.0 0.00 0.00 0.00 99 1013.2
20260902045247 63 176 0.0 0.0 0.00 0.00 0.00 99 1012.9
20260902044743 63 176 0.0 0.0 0.00 0.00 0.00 99 1012.9
20260902044238 63 173 0.0 0.0 0.00 0.00 0.00 99 1012.5
20260902043733 63 173 0.0 0.0 0.00 0.00 0.00 99 1012.5
20260902043229 63 173 0.0 0.0 0.00 0.00 0.00 99 1012.9
20260902042728 64 155 0.0 0.0 0.00 0.00 0.00 99 1012.5
20260902042223 64 155 0.0 0.0 0.00 0.00 0.00 99 1012.5
20260902041718 64 161 0.0 0.0 0.00 0.00 0.00 99 1013.2
20260902041213 64 161 0.0 0.0 0.00 0.00 0.00 99 1013.2
20260902040712 65 161 0.0 0.0 0.00 0.00 0.00 99 1012.9
20260902040208 65 161 0.0 0.0 0.00 0.00 0.00 99 1012.9
20260902035706 65 161 0.0 0.0 0.00 0.00 0.00 99 1013.2
20260902035202 65 162 0.0 0.0 0.00 0.00 0.00 99 1013.2
20260902034701 65 162 0.0 0.0 0.00 0.00 0.00 99 1013.2
20260902034200 65 162 0.0 0.0 0.00 0.00 0.00 99 1013.2
20260902033659 65 162 0.0 0.0 0.00 0.00 0.00 99 1013.2
20260902033154 66 162 0.0 0.0 0.00 0.00 0.00 99 1013.2
20260902032653 66 162 0.0 0.0 0.00 0.00 0.00 99 1013.2
20260902032148 66 162 0.0 0.0 0.00 0.00 0.00 99 1013.2
20260902031642 66 162 0.0 0.0 0.00 0.00 0.00 99 1013.2
20260902031138 66 162 0.0 0.0 0.00 0.00 0.00 99 1013.2
20260902030634 66 162 0.0 0.0 0.00 0.00 0.00 99 1012.9
20260902030133 67 162 0.0 0.0 0.00 0.00 0.00 99 1013.2
20260902025632 67 166 0.0 0.0 0.00 0.00 0.00 99 1013.2
20260902025128 68 166 0.0 0.0 0.00 0.00 0.00 99 1012.9
20260902024623 68 166 0.0 0.0 0.00 0.00 0.00 99 1012.9
20260902024118 68 166 0.0 0.0 0.00 0.00 0.00 99 1012.9
20260902023614 69 165 0.0 0.0 0.00 0.00 0.00 98 1012.5
20260902023108 69 171 0.0 0.0 0.00 0.00 0.00 98 1012.9
20260902022608 69 171 0.0 0.0 0.00 0.00 0.00 98 1012.9
20260902022104 69 171 0.0 0.0 0.00 0.00 0.00 98 1013.2
20260902021559 69 171 0.0 0.0 0.00 0.00 0.00 98 1012.9
20260902021054 69 171 0.0 0.0 0.00 0.00 0.00 98 1012.9
20260902020550 69 171 0.0 0.0 0.00 0.00 0.00 97 1013.2
20260902020046 70 171 0.0 0.0 0.00 0.00 0.00 97 1012.9
20260902015541 70 172 0.0 0.0 0.00 0.00 0.00 97 1012.9
20260902015037 70 172 0.0 0.0 0.00 0.00 0.00 97 1012.9
20260902014533 70 173 0.0 0.0 0.00 0.00 0.00 96 1012.9
20260902014028 70 173 0.0 0.0 0.00 0.00 0.00 95 1012.5
20260902013527 70 173 0.0 0.0 0.00 0.00 0.00 95 1012.5
20260902013023 70 173 0.0 0.0 0.00 0.00 0.00 95 1012.9
20260902012519 71 171 0.0 0.0 0.00 0.00 0.00 95 1012.5
20260902012014 71 171 0.0 0.0 0.00 0.00 0.00 94 1012.2
20260902011509 72 170 0.0 0.0 0.00 0.00 0.00 93 1012.2
20260902011009 72 170 0.0 0.0 0.00 0.00 0.00 93 1012.2
20260902010509 72 170 0.0 0.0 0.00 0.00 0.00 92 1012.2
20260902010004 73 168 0.0 0.0 0.00 0.00 0.00 91 1012.2